Location: Casilda
(33.0440°S, 61.1680°W)
Time: 13:25:35
(UTC-03:00)

ISS - Pass Details

Date: 15 January 2025
Orbit: 415 x 418 km, 51.6° (Epoch: 13 January)

Event Time Altitude Azimuth Distance (km) Brightness Sun altitude
Exits shadow 05:23:57 - 352° (N) 1,959 -0.7 -9.6°
Reaches altitude 10° 05:25:21 10° 4° (N) 1,495 -1.2 -9.3°
Maximum altitude 05:27:50 19° 52° (NE) 1,063 -1.5 -8.9°
Drops below altitude 10° 05:30:20 10° 100° (E) 1,511 0.3 -8.4°
Sets 05:32:50 0° 118° (ESE) 2,384 2.6 -8.0°
